Temp
15 15 15 16 15 14 16 16 16 16 15 14 14 14 14 13 13 12 10 10 10 11 11 11 11 11 11 11 11 10 11 11 11 11 11 10 10 10 10 10 9 9 9 9 9 8 8 8 8
15 15 15 14 15 15 17 17 17 15 15 15 14 13 13 12 12 11 11 10 10 10 11 11 11 11 11 11 11 10 11 11 11 11 10 10 10 10 10 9 10 9 9 9 9 8 8 8 8
14 15 15 14 14 12 14 17 16 15 15 15 15 14 11 11 12 11 11 10 10 10 10 11 11 11 11 11 11 11 11 10 10 11 10 10 10 10 10 10 10 9 9 9 9 9 8 8 8
14 14 14 14 14 13 13 13 17 15 15 14 15 15 13 11 12 11 11 10 12 10 10 11 11 11 11 11 11 11 11 11 11 11 11 10 10 10 10 10 9 9 9 9 9 9 9 8 8
13 13 13 14 14 13 15 14 15 15 13 12 13 14 13 13 12 12 11 12 12 10 10 10 11 10 11 11 11 11 10 10 11 11 10 10 10 10 10 10 9 9 9 9 9 9 9 8 8
12 13 12 13 13 16 16 15 14 14 13 13 14 13 13 13 12 12 12 11 11 11 10 10 10 10 10 10 10 11 10 10 10 10 10 10 10 10 10 10 9 9 9 9 9 9 9 9 8
13 12 12 12 13 16 17 17 16 16 14 14 14 14 13 13 12 12 12 12 11 11 10 10 10 10 10 10 10 10 10 10 10 10 10 10 9 10 10 10 10 9 9 9 9 9 9 9 8
13 13 13 14 16 16 17 17 16 16 15 15 14 13 12 13 12 11 11 12 12 11 11 10 10 10 10 10 10 10 10 10 10 10 9 9 9 9 9 9 9 9 9 9 9 9 9 9 9
13 14 14 16 16 16 17 17 16 16 16 15 15 14 14 13 12 12 12 12 12 12 11 10 10 10 10 10 10 10 10 9 9 9 9 9 9 9 9 9 9 9 9 9 9 9 9 9 10
14 15 16 16 16 17 18 16 16 15 16 15 15 15 14 13 13 13 13 12 12 12 12 11 11 10 10 10 10 9 9 9 9 9 9 8 9 9 8 8 8 9 9 9 9 9 9 9 9
15 15 16 17 17 17 17 17 17 15 16 16 16 15 14 14 14 13 13 12 12 12 12 12 11 10 10 10 9 9 9 9 8 8 8 8 8 8 9 8 8 8 9 9 9 9 9 9 9
15 16 16 17 16 17 17 17 16 16 16 15 15 15 15 14 14 13 13 12 12 11 11 11 11 11 11 10 10 9 9 9 8 9 8 8 8 8 8 8 8 8 8 9 9 9 9 9 9
16 16 17 17 17 17 17 17 17 16 16 15 15 15 15 14 14 13 13 12 12 11 11 10 10 10 11 11 10 9 9 9 9 9 8 8 7 8 8 8 8 8 8 9 8 9 9 9 9
16 16 17 17 17 17 17 17 17 16 16 15 14 14 14 13 13 12 12 12 12 11 11 10 10 10 9 9 9 9 9 9 10 9 8 8 8 7 8 8 8 8 8 8 8 9 8 8 9
15 16 17 17 17 17 17 17 17 17 16 15 13 14 12 13 13 12 12 12 11 11 10 10 10 10 10 9 9 9 9 9 9 9 8 8 9 7 8 8 8 8 8 8 8 8 8 8 8
15 16 16 16 17 17 17 18 17 17 16 13 12 13 12 12 13 12 12 12 11 11 10 10 10 9 9 9 9 8 8 9 9 9 8 9 9 8 8 9 8 7 7 7 8 8 8 8 8
15 16 15 15 16 16 17 17 17 16 17 14 12 11 12 12 12 13 12 12 11 11 10 10 10 9 9 9 9 8 8 7 7 8 8 9 8 8 9 9 8 8 7 7 7 8 8 8 8
15 16 15 15 17 17 18 18 16 17 15 13 11 7 12 12 12 12 12 12 11 11 10 10 10 9 9 9 9 9 8 8 7 7 7 8 8 8 7 8 8 8 8 8 8 7 7 8 8
16 17 15 16 17 17 18 17 17 17 16 14 16 14 9 11 11 11 12 12 12 11 10 10 10 9 10 10 10 9 9 8 8 7 7 6 7 7 7 7 8 8 8 8 7 7 7 7 8
16 17 17 18 18 16 18 18 17 18 16 17 16 11 12 12 12 10 10 10 11 11 10 10 11 11 11 10 10 9 9 7 7 7 6 6 6 7 7 7 8 8 8 8 7 7 7 7 8
17 17 17 17 18 17 18 18 18 18 17 16 14 14 13 11 10 11 8 9 9 10 10 11 11 11 11 10 10 9 8 7 7 6 5 5 6 6 7 7 6 7 8 8 7 6 7 7 7
16 17 17 17 17 17 17 17 18 17 16 16 16 16 15 14 12 13 12 12 10 10 11 11 11 11 11 11 11 9 8 7 7 6 6 6 5 6 7 7 6 7 7 8 7 7 7 7 7
17 17 17 17 17 17 17 17 15 16 16 16 16 15 14 13 13 13 13 11 10 11 11 11 11 11 10 10 10 9 8 7 7 6 6 6 6 6 6 6 6 6 8 7 7 7 7 7 7
17 17 17 17 16 15 17 17 15 16 16 16 15 14 13 13 13 14 12 11 11 11 11 11 10 10 10 10 10 9 7 7 7 6 7 7 6 6 6 7 7 7 7 7 7 7 7 7 7
17 16 16 13 13 12 17 17 14 16 16 16 14 14 13 14 14 12 12 11 11 11 10 10 10 10 10 10 10 8 8 7 6 7 7 7 7 7 7 7 7 7 7 7 7 7 7 7 7
17 16 16 12 12 14 17 17 13 15 15 15 14 14 15 14 13 12 11 11 11 10 10 10 10 10 10 10 10 9 7 7 6 7 7 7 7 7 7 7 7 7 7 7 7 7 7 7 6
17 16 16 16 16 15 17 16 15 13 14 14 14 14 14 14 13 12 11 12 11 11 11 10 10 10 10 10 10 10 8 7 7 7 7 7 7 7 7 7 7 7 7 7 6 6 7 6 7
17 17 16 16 13 12 16 13 15 13 13 14 13 13 13 14 13 12 11 11 10 10 10 10 10 10 9 10 10 10 8 7 7 7 7 7 7 7 7 7 7 7 6 6 6 6 6 6 6
16 16 16 16 16 12 11 13 14 13 13 14 14 12 13 13 13 12 12 11 10 9 10 9 9 9 9 10 10 10 9 8 7 7 7 7 7 7 7 7 7 7 7 6 6 6 6 6 6
17 17 16 16 16 17 16 12 14 13 13 13 13 13 11 13 12 12 11 10 9 9 9 9 9 9 9 9 9 9 10 9 8 7 7 7 7 6 6 6 6 6 7 6 6 6 6 6 6
Height
3173 3173 3172 3171 3174 3171 3170 3172 3171 3173 3173 3172 3174 3172 3172 3172 3170 3170 3171 3173 3176 3177 3178 3181 3182 3183 3185 3186 3187 3188 3189 3190 3191 3191 3193 3194 3195 3196 3197 3198 3199 3200 3202 3203 3205 3205 3206 3207 3208
3175 3174 3173 3172 3174 3173 3174 3172 3173 3177 3176 3174 3173 3173 3173 3173 3172 3169 3172 3176 3181 3182 3181 3181 3184 3185 3186 3187 3188 3189 3190 3191 3192 3193 3193 3194 3195 3196 3197 3199 3200 3201 3202 3204 3205 3206 3207 3207 3208
3176 3176 3176 3174 3175 3176 3175 3173 3175 3173 3177 3174 3173 3173 3173 3175 3174 3173 3174 3176 3178 3179 3182 3183 3184 3185 3187 3188 3188 3189 3190 3191 3192 3194 3194 3194 3195 3197 3198 3199 3200 3201 3202 3204 3206 3206 3208 3208 3209
3178 3180 3182 3178 3179 3182 3177 3175 3170 3172 3175 3180 3179 3177 3176 3176 3178 3175 3172 3174 3178 3179 3181 3183 3184 3186 3187 3189 3189 3190 3192 3193 3194 3195 3195 3196 3197 3198 3199 3200 3201 3201 3202 3203 3206 3206 3207 3208 3209
3180 3182 3181 3181 3183 3182 3172 3174 3166 3169 3173 3180 3181 3181 3176 3177 3179 3178 3176 3173 3176 3180 3181 3183 3184 3186 3188 3189 3190 3191 3193 3194 3195 3196 3196 3196 3197 3198 3199 3200 3201 3202 3202 3203 3205 3207 3208 3208 3208
3181 3185 3183 3184 3184 3175 3174 3172 3174 3169 3173 3176 3178 3181 3180 3178 3180 3180 3176 3176 3177 3181 3181 3183 3184 3186 3188 3188 3190 3191 3192 3194 3195 3196 3197 3197 3197 3198 3199 3200 3201 3202 3203 3203 3205 3206 3208 3208 3208
3183 3185 3187 3186 3182 3175 3176 3178 3166 3166 3171 3175 3179 3179 3179 3178 3179 3179 3176 3176 3178 3179 3180 3182 3184 3185 3186 3187 3189 3190 3191 3193 3194 3195 3196 3197 3198 3198 3199 3200 3200 3201 3203 3204 3204 3206 3207 3208 3208
3182 3184 3184 3177 3176 3179 3173 3178 3178 3176 3175 3176 3177 3175 3177 3176 3178 3177 3176 3175 3177 3178 3179 3181 3182 3183 3184 3185 3187 3189 3190 3192 3194 3195 3196 3196 3197 3197 3198 3199 3199 3201 3202 3204 3204 3205 3206 3207 3208
3181 3185 3180 3178 3177 3176 3178 3180 3179 3176 3173 3172 3174 3176 3174 3176 3177 3178 3174 3173 3176 3177 3178 3180 3180 3181 3183 3184 3186 3187 3188 3190 3192 3194 3195 3196 3197 3197 3199 3198 3199 3199 3201 3203 3204 3205 3206 3208 3209
3179 3179 3176 3178 3179 3177 3175 3176 3180 3179 3176 3172 3170 3173 3172 3175 3176 3176 3175 3174 3175 3175 3176 3177 3178 3179 3180 3182 3184 3186 3187 3188 3190 3193 3193 3194 3194 3196 3196 3197 3198 3199 3198 3201 3202 3204 3205 3207 3209
3178 3179 3178 3177 3178 3178 3177 3177 3172 3176 3173 3170 3168 3167 3169 3173 3175 3175 3174 3174 3174 3175 3174 3174 3177 3178 3178 3179 3181 3184 3186 3186 3188 3189 3192 3192 3194 3194 3196 3196 3196 3198 3198 3200 3200 3202 3202 3206 3207
3179 3178 3178 3177 3177 3177 3179 3177 3172 3169 3169 3171 3167 3166 3168 3168 3170 3173 3173 3174 3174 3175 3175 3175 3175 3176 3176 3178 3180 3182 3184 3183 3184 3188 3189 3191 3192 3193 3193 3195 3194 3196 3197 3198 3198 3200 3201 3204 3205
3177 3178 3178 3177 3177 3177 3177 3175 3171 3168 3169 3169 3170 3168 3166 3166 3167 3168 3170 3173 3174 3175 3174 3173 3174 3175 3175 3177 3178 3179 3180 3181 3181 3182 3184 3186 3187 3189 3190 3191 3193 3194 3195 3196 3196 3198 3200 3201 3204
3174 3174 3174 3177 3176 3174 3174 3173 3173 3168 3167 3166 3166 3165 3162 3165 3167 3166 3168 3170 3171 3172 3173 3172 3173 3175 3176 3177 3177 3177 3178 3179 3180 3181 3181 3182 3183 3184 3186 3188 3189 3190 3191 3192 3195 3196 3197 3200 3201
3173 3172 3172 3172 3170 3170 3169 3170 3171 3171 3162 3158 3156 3155 3158 3161 3162 3164 3165 3167 3169 3169 3169 3169 3171 3172 3174 3174 3175 3176 3176 3176 3176 3179 3178 3179 3179 3179 3181 3184 3185 3188 3189 3191 3193 3194 3195 3198 3201
3169 3170 3172 3171 3168 3167 3167 3167 3167 3165 3163 3156 3148 3166 3158 3163 3161 3165 3167 3169 3172 3173 3174 3174 3172 3170 3170 3172 3172 3171 3170 3169 3171 3174 3174 3175 3175 3175 3177 3179 3182 3183 3184 3187 3189 3192 3193 3195 3199
3168 3170 3170 3172 3161 3160 3164 3164 3161 3158 3156 3156 3171 3166 3162 3165 3164 3163 3164 3164 3168 3171 3173 3173 3173 3171 3168 3169 3171 3171 3170 3168 3166 3168 3168 3169 3170 3172 3172 3174 3177 3178 3180 3183 3186 3189 3192 3193 3197
3164 3170 3173 3169 3162 3162 3161 3159 3159 3157 3153 3161 3156 3151 3157 3164 3168 3166 3161 3162 3165 3168 3167 3168 3169 3169 3167 3165 3166 3166 3165 3165 3164 3163 3161 3161 3164 3166 3167 3169 3171 3173 3175 3179 3181 3186 3188 3190 3193
3164 3165 3164 3164 3162 3163 3160 3158 3158 3156 3155 3153 3148 3151 3163 3158 3162 3168 3166 3159 3161 3166 3166 3163 3165 3165 3164 3162 3161 3161 3160 3160 3159 3158 3157 3157 3157 3159 3161 3163 3166 3166 3171 3176 3178 3182 3184 3186 3190
3163 3163 3164 3162 3161 3160 3159 3157 3156 3155 3156 3159 3153 3152 3158 3154 3159 3166 3155 3157 3157 3160 3167 3164 3162 3163 3162 3159 3156 3155 3154 3153 3151 3150 3150 3149 3148 3151 3154 3156 3157 3161 3166 3170 3174 3176 3180 3182 3185
3159 3159 3159 3160 3159 3159 3157 3153 3152 3152 3153 3153 3150 3146 3141 3142 3155 3162 3143 3142 3145 3157 3161 3163 3161 3161 3159 3155 3152 3150 3149 3147 3145 3143 3142 3142 3140 3142 3146 3149 3151 3155 3159 3164 3169 3172 3176 3180 3182
3156 3157 3156 3156 3157 3157 3155 3151 3150 3148 3150 3150 3151 3152 3153 3129 3134 3152 3157 3155 3148 3157 3161 3161 3159 3159 3157 3152 3148 3147 3144 3141 3138 3137 3136 3134 3133 3136 3140 3143 3146 3149 3153 3158 3164 3168 3172 3176 3178
3153 3154 3153 3152 3152 3153 3152 3151 3148 3148 3148 3147 3147 3148 3144 3145 3150 3152 3155 3154 3153 3160 3161 3159 3158 3157 3154 3148 3145 3143 3140 3136 3133 3131 3131 3129 3127 3130 3135 3138 3141 3143 3148 3154 3159 3163 3166 3171 3175
3152 3151 3151 3150 3152 3153 3148 3148 3148 3147 3147 3146 3145 3145 3145 3143 3146 3150 3152 3153 3154 3158 3158 3158 3158 3157 3151 3147 3144 3140 3136 3132 3128 3127 3125 3125 3125 3127 3131 3134 3136 3139 3144 3149 3154 3159 3163 3166 3170
3148 3150 3149 3151 3151 3150 3147 3143 3144 3146 3147 3149 3144 3144 3147 3151 3151 3151 3152 3153 3155 3155 3156 3158 3158 3154 3150 3149 3144 3140 3135 3131 3126 3125 3123 3123 3123 3124 3126 3130 3133 3136 3141 3145 3149 3154 3158 3161 3164
3145 3146 3148 3151 3150 3145 3144 3140 3144 3139 3147 3150 3148 3147 3153 3154 3154 3154 3153 3153 3156 3156 3155 3155 3154 3151 3151 3149 3145 3141 3136 3130 3126 3124 3124 3123 3122 3122 3125 3128 3130 3133 3137 3141 3145 3149 3154 3156 3157
3140 3142 3145 3145 3145 3143 3141 3141 3144 3146 3152 3152 3148 3148 3152 3153 3155 3155 3152 3152 3151 3150 3151 3152 3152 3153 3152 3148 3146 3142 3138 3132 3129 3126 3125 3125 3124 3124 3125 3126 3129 3131 3134 3137 3142 3145 3149 3151 3156
3137 3141 3143 3142 3144 3146 3140 3140 3141 3146 3149 3151 3145 3147 3150 3148 3149 3151 3151 3151 3150 3149 3150 3151 3151 3152 3151 3149 3148 3144 3140 3135 3132 3129 3127 3127 3127 3127 3127 3127 3127 3129 3132 3134 3137 3142 3146 3149 3152
3134 3135 3138 3139 3139 3139 3143 3141 3141 3142 3148 3147 3147 3145 3142 3145 3145 3145 3146 3150 3152 3151 3150 3151 3150 3149 3149 3150 3148 3145 3142 3139 3136 3133 3131 3129 3128 3128 3128 3127 3127 3127 3129 3131 3135 3138 3142 3145 3147
3128 3131 3132 3132 3134 3135 3137 3143 3142 3141 3138 3139 3135 3141 3139 3145 3144 3145 3144 3146 3148 3149 3149 3148 3147 3145 3148 3149 3148 3147 3144 3141 3139 3137 3135 3133 3132 3130 3128 3127 3128 3128 3130 3131 3134 3137 3140 3141 3144
Wind_Speed
5 7 8 6 6 6 20 24 21 21 23 18 19 24 20 15 4 6 4 4 7 14 14 13 15 15 14 11 9 9 9 10 10 10 10 8 8 8 7 7 9 9 7 7 6 6 6 4 4
5 5 14 7 5 8 19 17 21 17 16 16 20 26 27 23 18 11 7 9 3 6 13 13 14 14 13 10 8 9 9 8 8 8 9 8 7 6 7 6 6 7 7 6 6 4 5 5 6
7 2 8 6 9 15 4 12 13 10 7 8 8 18 18 12 13 4 7 11 7 10 15 16 17 15 13 10 8 8 7 6 6 4 5 6 6 5 4 4 6 5 7 5 4 4 4 5 6
6 10 9 5 2 9 21 11 6 7 10 6 8 7 17 7 8 3 6 4 9 9 18 16 17 16 14 10 8 7 6 5 4 3 3 3 4 4 4 4 4 5 5 7 3 3 4 4 6
18 9 14 6 9 16 13 9 12 14 5 12 23 17 20 12 9 6 7 6 7 14 17 16 16 16 14 10 8 6 5 5 4 3 2 2 3 4 4 4 4 2 4 5 4 3 3 4 6
14 13 15 12 21 10 15 16 5 15 22 21 20 16 13 13 9 8 3 9 7 12 16 18 17 16 15 13 10 8 6 5 4 3 2 1 2 3 5 4 3 3 3 3 3 2 1 3 5
12 6 12 13 11 11 11 9 4 8 14 17 18 24 11 13 7 5 5 5 6 10 15 17 17 16 16 14 12 10 9 8 5 4 4 3 2 2 4 5 4 3 3 4 4 2 2 2 3
10 10 6 12 8 2 7 11 8 4 12 12 11 17 7 9 4 4 0 3 1 7 12 16 17 17 16 16 15 13 12 11 9 8 7 6 5 1 3 5 6 5 5 6 4 3 3 3 2
10 2 6 4 2 5 7 7 9 8 3 9 12 12 13 5 6 4 3 3 0 4 9 14 15 16 16 16 15 15 13 13 12 11 10 8 7 5 5 7 8 8 8 8 6 5 4 3 3
6 8 6 13 6 13 15 7 19 9 9 10 6 4 10 7 8 6 2 3 1 1 4 8 12 14 14 15 16 17 15 13 12 12 12 13 13 6 9 10 11 11 9 9 8 7 6 5 4
7 16 17 14 7 11 9 15 8 8 8 2 3 7 8 7 8 7 6 4 3 4 3 1 8 12 12 12 15 16 14 12 13 13 16 14 14 13 12 6 12 11 9 11 10 9 8 6 5
11 16 20 14 11 8 11 12 4 7 2 2 5 3 4 6 8 8 10 8 8 7 6 6 5 2 10 11 14 12 14 14 15 16 17 20 20 18 16 12 14 15 12 14 11 10 10 8 6
14 12 11 17 15 12 14 9 10 9 8 4 4 2 2 7 6 7 10 11 11 10 8 9 8 4 4 4 8 12 8 16 18 20 22 24 23 21 21 18 14 19 17 15 12 12 12 9 7
12 14 15 12 13 18 17 13 7 11 15 6 8 4 4 4 3 4 6 10 11 10 8 9 10 8 4 4 3 2 4 12 18 17 22 25 25 22 23 19 18 18 17 16 15 15 12 11 9
16 19 14 16 16 17 21 22 11 10 12 13 13 8 8 9 5 4 3 5 7 8 8 10 9 9 9 8 4 3 6 7 6 10 12 14 22 25 27 23 21 21 20 22 17 16 15 13 11
12 14 16 17 17 21 10 14 7 8 11 19 25 7 16 14 8 7 4 2 3 3 5 7 7 9 10 9 11 11 11 12 12 11 13 15 16 20 26 28 26 21 19 19 22 18 19 15 14
11 16 2 18 19 21 10 10 14 16 28 25 10 13 24 17 14 4 4 4 1 1 3 7 9 9 10 9 9 9 11 13 16 17 19 15 13 18 24 28 28 25 20 24 26 22 21 19 15
16 3 8 10 5 11 8 13 17 15 4 16 25 23 12 16 17 12 5 6 5 3 3 8 12 12 10 10 9 11 12 15 17 20 22 20 17 18 24 27 29 28 24 26 27 26 24 23 19
11 14 8 9 8 13 4 11 6 14 11 18 18 17 18 27 19 21 12 5 8 6 5 6 11 12 12 13 12 14 17 18 19 21 23 19 21 22 18 28 30 30 26 25 22 29 27 25 24
22 20 16 17 14 19 7 12 17 19 12 21 14 12 15 14 14 26 21 14 3 7 8 6 7 9 12 14 15 18 21 21 23 22 23 26 31 28 21 22 30 31 28 27 26 28 30 26 24
18 19 17 16 15 12 11 19 23 26 24 9 5 11 18 17 20 23 22 24 10 2 9 12 7 12 15 17 19 20 23 21 20 23 21 23 23 24 19 20 25 31 31 28 26 26 31 27 25
20 15 17 19 13 13 19 15 22 13 14 9 12 20 10 19 27 9 14 13 9 4 11 12 10 14 17 22 23 21 21 20 22 18 15 15 21 22 19 19 22 29 31 29 27 23 33 31 25
19 17 17 13 11 15 18 18 4 8 7 6 12 11 6 7 6 14 15 4 2 9 11 7 9 11 19 25 27 21 20 19 20 13 11 10 10 23 21 16 20 27 29 28 27 26 26 33 33
16 15 17 15 13 15 24 19 12 11 7 6 6 3 15 11 13 16 12 12 12 8 10 5 7 15 24 23 26 23 22 18 13 9 11 8 5 12 16 15 14 23 27 25 28 29 27 29 33
17 15 10 6 4 10 9 11 11 11 10 8 16 17 12 13 13 8 7 10 8 12 2 1 7 16 18 21 22 21 21 19 6 7 7 5 5 7 13 14 13 15 23 24 26 27 27 27 33
17 19 13 5 3 7 16 8 6 20 10 19 19 14 3 2 2 6 7 8 4 3 4 5 13 14 17 18 21 19 22 15 11 11 9 8 4 3 8 8 10 12 17 25 24 23 25 27 30
20 18 23 21 25 16 12 10 6 11 7 17 14 11 6 4 3 7 9 10 5 5 6 8 11 10 13 17 18 20 22 17 16 17 15 11 8 4 1 3 6 10 13 18 21 23 25 26 28
14 18 11 15 3 6 13 5 12 8 16 8 11 14 14 6 2 7 10 2 7 5 8 11 8 9 9 15 16 19 17 21 18 16 16 20 13 9 4 3 6 8 12 16 21 22 23 23 23
19 17 22 20 17 7 1 4 6 14 5 10 11 15 16 12 5 7 5 3 7 10 8 8 8 7 6 12 15 17 17 14 17 20 19 11 12 12 11 5 1 2 8 14 16 21 20 21 22
21 20 22 21 16 16 6 3 11 19 22 15 24 23 21 15 5 7 6 5 8 6 2 2 13 10 2 8 12 15 15 14 10 7 11 12 13 12 12 6 6 3 4 10 15 16 17 20 22
Wind_Direction
8 328 339 51 56 4 79 84 77 80 84 72 66 45 46 60 60 104 79 328 148 168 169 180 165 164 163 156 144 139 142 141 143 144 149 147 136 122 118 118 114 108 103 108 114 146 145 154 124
25 349 74 63 5 23 73 91 75 76 102 100 66 54 45 49 43 108 161 184 197 175 173 173 168 169 168 169 161 155 149 141 145 155 156 152 137 129 122 121 113 112 108 104 117 143 153 144 142
55 106 172 60 7 8 23 73 101 72 114 128 53 48 78 34 19 117 173 167 211 215 185 175 174 174 174 176 175 165 160 154 148 154 161 156 148 142 124 125 116 112 113 106 117 132 150 129 146
135 58 358 331 41 286 280 301 79 127 125 119 53 31 65 132 30 72 157 223 167 180 184 177 177 182 183 180 179 179 167 156 141 133 134 163 170 156 144 139 118 120 119 109 107 145 133 154 150
66 28 44 89 27 307 296 275 135 113 63 80 30 42 68 69 62 93 168 242 133 137 173 181 184 190 196 197 199 198 190 168 161 140 128 135 178 183 167 156 142 148 133 122 114 103 118 150 162
105 95 31 2 87 82 36 98 21 77 76 69 46 65 67 68 58 81 78 200 194 167 180 188 192 198 206 211 213 216 212 207 188 190 174 157 161 199 180 178 183 174 165 160 152 147 140 175 166
94 338 347 284 231 343 41 64 49 46 68 48 56 50 63 49 45 59 7 92 191 194 188 196 201 204 210 218 221 228 232 228 229 234 223 201 197 205 204 196 199 214 211 200 183 203 183 206 182
59 284 73 177 141 96 75 93 144 22 29 38 69 77 63 59 75 159 260 48 178 196 205 206 206 210 212 219 226 233 242 245 235 235 233 215 198 197 261 214 209 221 223 229 209 211 207 206 215
107 1 147 36 86 308 131 300 123 344 59 -0 34 16 90 81 87 123 316 338 291 163 189 210 208 213 218 220 227 233 236 239 244 239 234 221 178 89 0 267 242 220 229 225 227 225 223 227 228
180 202 24 344 354 13 10 79 336 231 306 335 3 76 94 99 88 68 25 27 337 161 178 194 212 218 222 230 235 237 239 244 247 246 237 226 215 264 322 250 229 233 216 223 218 231 225 215 237
223 253 300 318 336 4 1 344 14 130 3 38 86 85 135 93 99 91 81 71 63 62 43 282 229 223 229 230 238 237 235 243 244 240 240 231 221 284 287 268 241 235 230 226 212 230 244 229 222
249 264 287 303 317 332 310 341 4 301 340 137 33 60 117 84 81 75 68 83 89 87 80 67 53 231 249 243 251 263 260 243 235 242 244 246 259 269 277 259 242 238 235 228 221 225 236 235 223
273 278 287 294 298 306 305 274 288 311 307 327 333 277 117 85 85 78 64 81 79 78 76 72 60 40 334 299 262 256 265 250 241 237 236 245 254 259 271 264 248 233 226 230 225 223 229 232 231
278 291 276 291 295 292 290 281 272 300 309 265 287 268 141 100 63 110 69 70 77 68 55 51 47 37 29 28 51 334 286 252 252 265 265 251 247 251 263 261 254 241 235 228 233 218 212 228 218
298 295 281 291 272 268 288 269 283 312 242 229 207 246 175 190 240 194 104 71 75 59 41 38 40 48 30 18 18 330 298 294 298 261 271 255 256 253 257 249 243 239 239 225 226 223 216 218 223
291 284 292 278 291 267 274 266 268 226 237 220 202 231 187 216 250 261 211 132 106 81 45 25 34 38 34 11 352 334 325 318 302 297 282 271 260 259 251 244 242 241 237 220 218 234 222 221 223
291 282 57 342 272 261 272 274 262 225 303 223 257 203 201 225 240 343 317 280 264 68 17 4 20 8 10 2 343 321 304 294 291 285 289 278 253 257 250 240 238 241 234 217 229 234 228 225 225
273 257 195 202 36 209 229 289 251 263 238 206 228 355 165 203 254 273 324 340 305 278 10 358 350 353 356 352 326 312 301 294 288 285 286 282 277 263 249 239 237 236 236 222 231 226 225 224 229
283 295 218 236 216 224 285 311 258 258 243 201 292 259 311 206 205 251 275 249 345 324 348 339 322 334 343 345 327 316 304 296 285 281 281 271 273 266 255 236 234 234 233 223 227 227 226 223 227
273 282 293 296 300 249 222 271 280 288 252 257 290 29 352 187 194 212 210 177 292 315 315 349 340 347 346 334 324 312 305 298 297 287 268 273 274 259 240 238 231 233 230 230 230 227 221 223 226
270 274 283 288 289 276 258 262 270 260 257 239 300 345 343 219 192 210 306 343 142 285 321 2 2 4 351 340 327 316 306 297 302 294 278 278 263 239 237 236 229 229 229 228 228 222 216 221 228
269 269 274 276 273 294 291 303 315 274 246 241 218 241 268 292 174 246 305 335 87 298 309 348 7 2 1 1 348 326 311 299 309 294 289 281 250 238 240 244 230 224 226 227 225 225 222 223 228
266 267 268 293 310 311 291 292 264 194 221 206 263 322 164 198 243 267 292 355 260 287 333 353 11 3 359 356 350 333 322 315 316 288 287 308 261 234 245 243 239 220 222 224 222 228 226 230 229
262 269 273 282 289 296 281 291 223 203 310 273 210 102 132 162 236 278 286 279 252 292 341 7 355 350 348 350 343 339 336 330 320 314 304 296 284 230 228 236 238 221 218 221 224 226 229 232 232
237 246 284 295 269 242 266 311 33 216 297 199 168 156 161 239 257 270 293 274 279 316 197 294 325 333 356 352 349 353 359 347 353 5 9 338 285 232 227 226 228 222 219 220 224 227 229 228 223
238 225 228 241 237 256 326 280 70 298 204 176 171 176 233 264 272 262 293 290 283 248 232 352 352 346 347 357 357 4 357 3 26 37 21 16 18 209 220 227 217 216 214 220 223 225 225 230 223
232 252 239 254 276 301 292 245 131 140 157 162 186 196 231 294 325 307 298 329 292 280 299 321 343 328 348 9 2 14 25 35 42 42 38 32 37 55 173 218 216 218 219 217 216 221 223 225 224
236 236 240 238 251 271 277 80 172 174 281 150 175 200 215 250 184 307 320 358 1 296 289 312 319 312 348 16 13 14 24 42 44 49 53 47 38 35 19 270 233 231 222 214 210 216 222 229 227
217 227 248 264 269 197 123 235 148 137 223 201 186 221 227 239 211 275 296 253 327 322 279 300 313 302 353 20 20 16 26 36 50 57 52 49 50 47 25 348 255 211 210 210 210 211 215 218 221
221 238 239 233 263 284 336 121 194 196 206 202 248 223 204 219 228 276 285 272 285 295 241 43 39 50 184 15 15 14 22 30 32 22 20 20 24 34 47 83 65 92 153 194 200 210 223 228 235